This is the latest recevied weather packets stored in our database for station/object KC1OEK-13. If no packets are shown the sender has not sent any weather packets the latest 10 day(s).
| Time | Temp. | Humidity | Pressure | Rain* | Wind** | Luminosity | Snow |
|---|---|---|---|---|---|---|---|
| 1778201323 | 9.44° C | 59% | 1010.8 hPa | 0 mm | - | 0 W/m² | - |
| 1778201019 | 9.44° C | 58% | 1010.8 hPa | 0 mm | - | 0 W/m² | - |
| 1778200716 | 9.44° C | 59% | 1010.6 hPa | 0 mm | - | 0 W/m² | - |
| 1778200413 | 9.44° C | 57% | 1010.5 hPa | 0 mm | - | 0 W/m² | - |
| 1778200110 | 10° C | 57% | 1010.5 hPa | 0 mm | - | 0 W/m² | - |
| 1778199807 | 10° C | 54% | 1010.3 hPa | 0 mm | - | 0 W/m² | - |
| 1778199503 | 10.56° C | 54% | 1010.3 hPa | 0 mm | - | 0 W/m² | - |
| 1778199199 | 11.11° C | 53% | 1010.2 hPa | 0 mm | - | 0 W/m² | - |
| 1778198895 | 10.56° C | 51% | 1010.4 hPa | 0 mm | - | 1 W/m² | - |
| 1778198592 | 11.11° C | 51% | 1010.3 hPa | 0 mm | - | 2 W/m² | - |
| 1778198289 | 11.67° C | 51% | 1010.3 hPa | 0 mm | - | 3 W/m² | - |
| 1778197986 | 11.67° C | 48% | 1010.3 hPa | 0 mm | - | 5 W/m² | - |
| 1778197683 | 11.67° C | 48% | 1010.2 hPa | 0 mm | - | 7 W/m² | - |
| 1778197379 | 12.22° C | 46% | 1010 hPa | 0 mm | - | 9 W/m² | - |
| 1778197076 | 12.22° C | 44% | 1010.1 hPa | 0 mm | - | 12 W/m² | - |
| 1778196774 | 12.78° C | 45% | 1009.9 hPa | 0 mm | - | 15 W/m² | - |
| 1778196471 | 12.78° C | 45% | 1009.8 hPa | 0 mm | - | 18 W/m² | - |
| 1778196168 | 12.78° C | 46% | 1009.9 hPa | 0 mm | - | 20 W/m² | - |
| 1778195864 | 12.78° C | 50% | 1009.9 hPa | 0 mm | - | 23 W/m² | - |
| 1778195561 | 13.33° C | 44% | 1009.6 hPa | 0 mm | - | 25 W/m² | - |
| 1778195258 | 13.89° C | 42% | 1009.7 hPa | 0 mm | - | 29 W/m² | - |
| 1778194956 | 13.89° C | 41% | 1009.7 hPa | 0 mm | - | 31 W/m² | - |
| 1778194655 | 14.44° C | 40% | 1009.6 hPa | 0 mm | - | 34 W/m² | - |
| 1778194351 | 15° C | 39% | 1009.7 hPa | 0 mm | - | 63 W/m² | - |
| 1778194047 | 15° C | 38% | 1009.8 hPa | 0 mm | - | 72 W/m² | - |
* Rain latest hour (hover to see other rain measurements)
** Current wind speed in m/s (hover to see current wind gust speed)